Flag for Cuba Weather past 2 weeks in Santa Clara, Cuba

Now
73 °F

Mild.


Feels Like: 70 °F
Forecast: 70 / 91 °F
Wind: 12 mph from Northeast

Location: Cienfuegos - Las Villas

Current Time: May 30, 2015 at 6:37:45 AM

Latest Report: May 30, 2015 at 5:58 AM


Visibility: N/A

Pressure: 29.98 "Hg

Humidity: 94%

Dew point: 72 °F

Location of Santa ClaraLocation

Historic Weather in Santa Clara — Graph

°F

Santa Clara temperature yesterday

Maximum temperature yesterday: 88 °F (at 12:58 PM)
Minimum temperature yesterday: 73 °F (at 2:58 AM)
Average temperature yesterday: 79 °F

Past Weeks' High & Low Weather Summary

 TemperatureHumidityPressure
High93 °F (May 15, 1:50 PM)100% (May 16, 5:58 PM)30.15 "Hg (May 16, 5:58 PM)
Low70 °F (May 18, 6:58 AM)41% (May 18, 3:58 PM)29.92 "Hg (May 20, 4:58 PM)
Average80 °F79%30.05 "Hg
* Reported May 15 4:58 AM — May 30 4:58 AM, Santa Clara, Weather by CustomWeather, © 2015

Note: Actual official high and low records may vary slightly from our data, if they occured in-between our weather recording intervals... More about our weather records

Advertising

Santa Clara weather history for previous 24 hours

 ConditionsComfort  
Time TempWeatherWind HumidityBarometerVisibility
4:58 AM
Sat, May 30
73 °FMild.13 mph94%29.98 "HgN/A
3:58 AM73 °FMild.12 mph94%29.98 "HgN/A
2:58 AM73 °FMild.15 mph94%29.98 "HgN/A
1:58 AM75 °FMild.13 mph94%30.01 "HgN/A
12:58 AM75 °FMild.10 mph94%30.04 "HgN/A
11:58 PM
Fri, May 29
75 °FMild.7 mph94%30.04 "HgN/A
10:58 PM75 °FMild.8 mph100%30.04 "HgN/A
9:58 PM75 °FMild.5 mph94%30.01 "HgN/A
8:58 PM75 °FMild.7 mph94%30.01 "HgN/A
7:54 PM75 °FMixture of precip. Scattered clouds.7 mph94%N/AN/A
6:52 PM82 °FScattered showers. Scattered clouds.10 mph70%N/AN/A
5:51 PM84 °FScattered clouds.15 mph70%29.95 "HgN/A
4:53 PM86 °FPartly sunny.22 mph66%29.95 "HgN/A
3:50 PM86 °FBroken clouds.22 mph62%29.98 "HgN/A
2:50 PM86 °FBroken clouds.21 mph62%29.98 "Hg6 mi
1:58 PM84 °FWarm.9 mph62%29.98 "HgN/A
12:58 PM88 °FWarm.14 mph52%30.01 "HgN/A
11:58 AM86 °FWarm.14 mph59%30.04 "HgN/A
10:58 AM84 °FWarm.20 mph66%30.04 "HgN/A
9:58 AM82 °FWarm.22 mph70%30.04 "HgN/A
8:58 AM81 °FWarm.20 mph70%30.01 "HgN/A
7:58 AM75 °FMild.18 mph83%30.01 "HgN/A
6:58 AM73 °FMild.17 mph89%29.98 "HgN/A
Weather by CustomWeather, © 2015

See weather overviewHow to use our weather pages